Location: Casone le Fosse
(44.6547°N, 12.1103°E)
Time: 03:50:05
(UTC+00:00)

USA 215 - Pass Details

Date: 29 October 2020
Orbit: 1102 x 1106 km, 123.0° (Epoch: 28 November)

Event Time Altitude Azimuth Distance (km) Brightness Sun altitude
Exits shadow 16:22:47 - 60° (ENE) 3,575 5.3 -4.0°
Reaches altitude 10° 16:24:35 10° 53° (NE) 2,965 5.0 -4.3°
Maximum altitude 16:30:06 30° 355° (N) 1,849 4.4 -5.2°
Drops below altitude 10° 16:35:37 10° 297° (WNW) 2,964 6.3 -6.2°
Sets 16:38:24 0° 288° (WNW) 3,922 7.3 -6.7°
